sat.trackr.live / text

‹ back to catalog

BEIDOU-2 IGSO-3 (C08)

NORAD 37384 · 2011-013A

PAYLOAD ACTIVE UNKNOWN

§ Identity

Operator
Country
PRC
Launch date
2011-04-09
Launch site
XICLF
Launch vehicle
Mass (kg)
RCS (m²)
31.62

Purposes: comms, nav

External: N2YO · Heavens-Above · Gunter

§ Orbital elements

Epoch: 2026-05-19T18:25:54.635808Z

Period
1,436.07 min
Inclination
62.3699°
Eccentricity
0.0033807
Mean motion
1.00273682 rev/d
Perigee alt
35,643.5 km
Apogee alt
35,928.6 km
Semi-major
42,164.2 km
B*
0.0000e+0
RAAN
40.4207°
Arg perigee
185.8234°
Mean anomaly
35.8952°
Rev number
5,537

§ Raw data

BEIDOU-2 IGSO-3 (C08)1 37384U 11013A   26139.76799347 -.00000201  00000+0  00000+0 0  99962 37384  62.3699  40.4207 0033807 185.8234  35.8952  1.00273682 55372

JSON: /api/v1/satellites/37384 · /tle

For live sub-satellite position, see the globe view (requires WebGL).

§ Visibility from observer

Set your observer location to see the next 7 days of passes ≥ 10°. The values pass through the URL so the page stays shareable.

No JS? Fill the form by hand. The geolocation button needs JavaScript.